アトラス彗星

C/2019 L3 ( ATLAS )

English version
Home page
Updated on September 18, 2021

---------------------------------------------------------------------

・ プロフィール

発見日 2019年6月10日
発見光度 18.1等
発見者 Asteroid Terrestrial-Impact Last Alert System (ATLAS) search program

・ 写真集

・ 軌道要素

Epoch 2022 Jan. 21.0 TT = JDT 2459600.5
T 2022 Jan.  9.61976 TT                                 Rudenko
q   3.5544840            (2000.0)            P               Q
z  -0.0004519      Peri.  171.61096     -0.26052745     -0.66630679
 +/-0.0000004      Node   290.79037     +0.83676029     +0.20517229
e   1.0016063      Incl.   48.36120     +0.48161983     -0.71689581
From 2064 observations 2019 June 10-2021 May 31, mean residual 0".4.

・ 星図

・ 光度変化

        m1 = -0.5 + 5 logΔ + 15.0 log r

---------------------------------------------------------------------

軌道要素はM.P.E.C. 2021-L04に掲載されたものです。
星図はステラナビゲータ Ver.10 (アストロアーツ) で作成したものです。
光度グラフはComet for Windowsで作成したものです。

---------------------------------------------------------------------

Copyright(C) Seiichi Yoshida (comet@aerith.net). All rights reserved.